EW3230 Weather Reports


time (UTC)temp
F
wind
direction
speed
knots
gust
knots
rain 1hr
in
rain 24hr
in
rain mn
in
humidity
%
barometer
mb
20260905185248 70 179 2.6 9.6 0.00 0.00 0.00 75 1010.5
20260905184749 71 305 2.6 10.4 0.00 0.00 0.00 75 1010.4
20260905183247 71 105 1.7 5.2 0.00 0.00 0.00 75 1010.3
20260905182250 70 334 1.7 7.0 0.00 0.00 0.00 75 1010.5
20260905181248 70 95 1.7 7.0 0.00 0.00 0.00 75 1010.6
20260905180247 70 103 1.7 7.0 0.00 0.00 0.00 75 1010.6
20260905175746 70 269 1.7 6.1 0.00 0.00 0.00 75 1010.5
20260905174247 71 57 1.7 9.6 0.00 0.00 0.00 75 1010.2
20260905173244 70 43 1.7 8.7 0.00 0.00 0.00 75 1010.0
20260905172244 69 61 1.7 6.1 0.00 0.00 0.00 75 1010.0
20260905171245 69 43 1.7 7.0 0.00 0.00 0.00 75 1010.1
20260905170245 69 114 1.7 7.0 0.00 0.00 0.00 75 1010.1
20260905165241 69 72 1.7 9.6 0.00 0.00 0.00 75 1010.1
20260905164239 70 225 0.0 6.1 0.00 0.00 0.00 75 1010.1
20260905163241 70 155 1.7 7.0 0.00 0.00 0.00 75 1010.0
20260905162237 70 234 2.6 12.2 0.00 0.00 0.00 75 1009.9
20260905161237 70 78 2.6 10.4 0.00 0.00 0.00 75 1009.8
20260905160238 71 134 2.6 10.4 0.00 0.00 0.00 74 1009.8
20260905155236 72 65 2.6 13.0 0.00 0.00 0.00 74 1009.7
20260905154237 71 96 2.6 10.4 0.00 0.00 0.00 74 1009.6
20260905153239 72 69 1.7 10.4 0.00 0.00 0.00 73 1009.5
20260905152237 72 67 1.7 11.3 0.00 0.00 0.00 72 1009.4
20260905151238 72 59 1.7 7.0 0.00 0.00 0.00 72 1009.5
20260905150237 72 82 1.7 7.0 0.00 0.00 0.00 73 1009.3
20260905145237 72 86 1.7 7.8 0.00 0.00 0.00 73 1009.4
20260905144237 72 111 1.7 9.6 0.00 0.00 0.00 72 1009.6
20260905143238 72 84 2.6 11.3 0.00 0.00 0.00 72 1009.4
20260905142737 72 76 2.6 6.1 0.00 0.00 0.00 72 1009.4
20260905141236 72 77 1.7 7.8 0.00 0.00 0.00 72 1009.4
20260905140236 72 307 1.7 7.0 0.00 0.00 0.00 73 1009.4
20260905135236 73 288 0.9 5.2 0.00 0.00 0.00 74 1009.5
20260905134238 73 16 0.9 5.2 0.00 0.00 0.00 74 1009.5
20260905133236 71 87 0.9 4.3 0.00 0.00 0.00 75 1009.4
20260905132238 71 100 0.9 5.2 0.00 0.00 0.00 75 1009.3
20260905131240 70 102 0.9 4.3 0.00 0.00 0.00 75 1009.2
20260905130236 69 91 0.9 5.2 0.00 0.00 0.00 74 1009.2
20260905125238 69 96 0.9 3.5 0.00 0.00 0.00 74 1009.2
20260905124236 68 87 0.9 5.2 0.00 0.00 0.00 74 1009.0
20260905123236 67 142 0.0 4.3 0.00 0.00 0.00 73 1008.9
20260905122236 66 97 0.0 2.6 0.00 0.00 0.00 73 1008.8
20260905121237 66 264 0.0 3.5 0.00 0.00 0.00 72 1008.8
20260905120238 65 296 0.0 2.6 0.00 0.00 0.00 71 1008.8
20260905115737 65 248 0.0 1.7 0.00 0.00 0.00 71 1008.9
20260905114238 64 264 0.0 0.9 0.00 0.00 0.00 69 1008.9
20260905113236 63 264 0.0 0.0 0.00 0.00 0.00 69 1008.8
20260905112238 63 264 0.0 0.9 0.00 0.00 0.00 68 1008.8
20260905111238 62 264 0.0 0.0 0.00 0.00 0.00 67 1008.7
20260905110236 62 264 0.0 0.0 0.00 0.00 0.00 68 1008.7
20260905105236 62 266 0.0 0.0 0.00 0.00 0.00 68 1008.7
20260905104237 62 264 0.0 0.9 0.00 0.00 0.00 68 1008.5
20260905103236 62 266 0.0 0.9 0.00 0.00 0.00 68 1008.4
20260905102236 62 266 0.0 0.9 0.00 0.00 0.00 69 1008.3
20260905101237 62 266 0.0 0.9 0.00 0.00 0.00 69 1008.2
20260905100741 62 298 0.0 0.0 0.00 0.00 0.00 69 1008.1
20260905095242 62 238 0.0 0.9 0.00 0.00 0.00 68 1008.1
20260905095236 62 298 0.0 1.7 0.00 0.00 0.00 68 1008.3
20260905093236 62 238 0.0 0.0 0.00 0.00 0.00 68 1008.1
20260905092237 62 238 0.0 0.0 0.00 0.00 0.00 67 1008.0
20260905091236 61 238 0.0 0.0 0.00 0.00 0.00 67 1008.0
20260905090737 61 238 0.0 0.9 0.00 0.00 0.00 66 1008.1
20260905085236 61 238 0.0 0.0 0.00 0.00 0.00 66 1008.1
20260905084237 61 238 0.0 0.0 0.00 0.00 0.00 66 1008.2
20260905083737 61 238 0.0 0.0 0.00 0.00 0.00 67 1008.3
20260905082237 62 238 0.0 0.0 0.00 0.00 0.00 67 1008.2
20260905081238 62 238 0.0 0.0 0.00 0.00 0.00 67 1008.2
20260905080239 62 238 0.0 0.0 0.00 0.00 0.00 68 1008.1
20260905075242 62 238 0.0 0.0 0.00 0.00 0.00 68 1008.1
20260905075236 62 238 0.0 0.0 0.00 0.00 0.00 68 1008.1
20260905073238 63 238 0.0 0.0 0.00 0.00 0.00 69 1008.2
20260905072237 63 238 0.0 0.0 0.00 0.00 0.00 70 1008.2
20260905071236 63 238 0.0 0.0 0.00 0.00 0.00 70 1008.3
20260905070237 63 238 0.0 0.9 0.00 0.00 0.00 70 1008.5
20260905064739 64 238 0.0 0.9 0.00 0.00 0.00 69 1008.7
20260905063737 64 238 0.0 1.7 0.00 0.00 0.00 69 1008.7
20260905062249 63 101 0.0 0.9 0.00 0.00 0.00 67 1008.7
20260905061237 63 99 0.0 0.0 0.00 0.00 0.00 66 1008.8
20260905060239 63 98 0.0 0.9 0.00 0.00 0.00 65 1008.8
20260905055242 63 101 0.0 0.0 0.00 0.00 0.00 63 1008.7
20260905055237 64 100 0.0 0.0 0.00 0.00 0.00 64 1008.7
20260905053236 63 101 0.0 0.0 0.00 0.00 0.00 62 1008.8
20260905052738 63 101 0.0 0.9 0.00 0.00 0.00 61 1008.7
20260905051237 63 101 0.0 0.9 0.00 0.00 0.00 60 1008.7
20260905050237 64 101 0.0 0.0 0.00 0.00 0.00 60 1008.8
20260905045236 64 100 0.0 0.0 0.00 0.00 0.00 60 1008.9
20260905044237 64 101 0.0 0.0 0.00 0.00 0.00 59 1008.9
20260905043741 64 101 0.0 0.0 0.00 0.00 0.00 59 1008.8
20260905042233 64 101 0.0 0.0 0.00 0.00 0.00 59 1008.9
20260905041233 64 100 0.0 0.0 0.00 0.00 0.00 59 1008.9
20260905040231 65 101 0.0 0.0 0.00 0.00 0.00 59 1008.8
20260905035734 65 101 0.0 0.0 0.00 0.00 0.00 60 1008.8
20260905034232 65 101 0.0 0.0 0.00 0.00 0.00 60 1008.8
20260905033232 65 101 0.0 0.0 0.00 0.00 0.00 60 1008.8
20260905032232 65 101 0.0 0.0 0.00 0.00 0.00 61 1008.7
20260905031233 66 101 0.0 0.0 0.00 0.00 0.00 62 1008.7
20260905030232 66 101 0.0 0.0 0.00 0.00 0.00 62 1008.9
20260905025235 66 101 0.0 0.9 0.00 0.00 0.00 62 1008.7
20260905024231 67 113 0.0 0.9 0.00 0.00 0.00 62 1008.7
20260905023233 67 68 0.0 0.0 0.00 0.00 0.00 63 1008.7
20260905022746 67 73 0.0 0.0 0.00 0.00 0.00 64 1008.7
20260905021232 67 73 0.0 0.0 0.00 0.00 0.00 65 1008.9
20260905020734 67 74 0.0 0.0 0.00 0.00 0.00 65 1008.9
20260905015230 68 74 0.0 0.0 0.00 0.00 0.00 66 1009.0
20260905014735 68 74 0.0 0.0 0.00 0.00 0.00 66 1009.2
20260905013232 68 73 0.0 0.0 0.00 0.00 0.00 68 1009.1
20260905012231 69 74 0.0 0.0 0.00 0.00 0.00 69 1009.3
20260905011232 69 74 0.0 0.0 0.00 0.00 0.00 70 1009.3
20260905010232 70 73 0.0 0.0 0.00 0.00 0.00 72 1009.3
20260905005231 70 73 0.0 0.0 0.00 0.00 0.00 73 1009.3
20260905004231 70 73 0.0 0.0 0.00 0.00 0.00 73 1009.3
20260905003230 71 73 0.0 0.0 0.00 0.00 0.00 74 1009.2
20260905002244 71 74 0.0 0.0 0.00 0.00 0.00 75 1009.1
20260905001733 71 75 0.0 0.0 0.00 0.00 0.00 75 1008.9
20260905000233 72 75 0.0 0.0 0.00 0.00 0.00 75 1008.9
20260904235245 73 75 0.0 0.9 0.00 0.00 0.00 76 1008.8
20260904233233 73 65 0.0 1.7 0.00 0.00 0.00 75 1008.7
20260904232239 75 6 0.0 0.0 0.00 0.00 0.00 73 1008.4
20260904232234 74 78 0.0 1.7 0.00 0.00 0.00 74 1008.6
20260904230231 75 6 0.0 0.9 0.00 0.00 0.00 74 1008.4
20260904225232 76 46 0.0 0.9 0.00 0.00 0.00 74 1008.4
20260904224231 76 88 0.0 0.0 0.00 0.00 0.00 75 1008.5
20260904223232 77 88 0.0 0.0 0.00 0.00 0.00 75 1008.3
20260904222232 77 88 0.0 0.0 0.00 0.00 0.00 75 1008.2
20260904221231 78 88 0.0 0.0 0.00 0.00 0.00 75 1008.1
20260904220233 78 88 0.0 0.0 0.00 0.00 0.00 75 1008.2
20260904215230 78 88 0.0 0.0 0.00 0.00 0.00 75 1008.1
20260904214231 79 87 0.0 0.0 0.00 0.00 0.00 74 1008.1
20260904213231 80 87 0.0 0.9 0.00 0.00 0.00 74 1008.0
20260904212230 80 80 0.0 0.9 0.00 0.00 0.00 73 1008.0
20260904211230 81 110 0.0 1.7 0.00 0.00 0.00 72 1008.0
20260904210735 82 74 0.0 0.9 0.00 0.00 0.00 71 1008.1
20260904205230 82 46 0.0 2.6 0.00 0.00 0.00 70 1008.0
20260904204232 84 11 0.0 1.7 0.00 0.00 0.00 67 1008.1
20260904203232 84 156 0.0 0.9 0.00 0.00 0.00 68 1008.0
20260904202232 82 90 0.0 2.6 0.00 0.00 0.00 71 1008.0
20260904201734 81 110 0.0 0.9 0.00 0.00 0.00 72 1008.0
20260904200231 81 103 0.0 1.7 0.00 0.00 0.00 73 1008.0
20260904195231 81 41 0.0 0.9 0.00 0.00 0.00 71 1008.0
20260904194232 80 79 0.0 0.9 0.00 0.00 0.00 70 1008.2
20260904193232 80 75 0.0 2.6 0.00 0.00 0.00 70 1008.1
20260904192232 81 119 0.9 3.5 0.00 0.00 0.00 69 1008.1
20260904191233 82 70 0.9 7.0 0.00 0.00 0.00 66 1008.2
20260904190233 82 79 0.0 1.7 0.00 0.00 0.00 70 1008.1